Regional Weather Roundup
Issued by NWS Sterling, VA

Home | Current Version | Previous Version | Text Only | Print | Product List | Glossary Off
Versions: 1 2 3 4 5 6 7 8 9 10 11 12 13 14 15 16 17 18 19 20 21 22 23 24 25 26 27 28

000
ASUS41 KLWX 210910
RWRLWX

REGIONAL WEATHER ROUNDUP
NATIONAL WEATHER SERVICE BALTIMORE MD/WASHINGTON DC
500 AM EDT MON APR 21 2014

Note: "FAIR" indicates few or no clouds below 12,000 feet
with no significant weather and/or obstructions to visibility.
 TC=TEMPERATURE CELSIUS

 * =Non NWS site. Station does not report precipitation (e.g. rain,
    snow, etc.), thunder, or fog.

DCZ001-MDZ009-015-VAZ040>042-051-053>054-211000-
WASHINGTON METRO

CITY           SKY/WX    TMP DP  RH WIND       PRES   REMARKS
WASHINGTON NAT PTCLDY    45  29  53 NE5       30.23F
DULLES         PTCLDY    34  31  88 CALM      30.22F
ANDREWS AFB    CLEAR     37  28  69 N5        30.22S
FT BELVOIR     CLEAR     35  32  90 CALM      30.23F
QUANTICO       CLEAR     39  33  79 NW8       30.23F
COLLEGE PARK*  CLEAR     36  34  93 CALM      30.22F
LEESBURG*      CLEAR     36  36 100 CALM      30.23S
MANASSAS*      CLEAR     34  32  93 CALM      30.23S
GAITHERSBURG*  CLEAR     34  30  86 CALM      30.25R

$$

MDZ006>007-011-014-211000-
BALTIMORE METRO

CITY           SKY/WX    TMP DP  RH WIND       PRES   REMARKS
BWI AIRPORT    PTCLDY    35  29  78 CALM      30.22S
MD SCIENCE CTR   N/A     45  26  47 MISG      30.23S
MARTIN STATE   CLEAR     37  32  81 CALM      30.25S
ANNAPOLIS      CLEAR     44  27  51 CALM      30.22F
FORT MEADE*    CLEAR     32  30  93 CALM      30.25S

$$

MDZ012-015-019>023-211000-
MARYLAND EASTERN SHORE

CITY           SKY/WX    TMP DP  RH WIND       PRES   REMARKS
OCEAN CITY     PTCLDY    45  40  82 NE9       30.17F
SALISBURY      CLEAR     40  35  83 N5        30.18F
BAY BRIDGE AP* CLEAR     39  28  65 CALM      30.23S
EASTON*        CLEAR     38  31  74 CALM      30.25F

$$

MDZ017>025-211000-
SOUTHERN MARYLAND

CITY           SKY/WX    TMP DP  RH WIND       PRES   REMARKS
PATUXENT RIVER PTCLDY    43  33  68 N7        30.20F
ST INIGOES     CLEAR     43  34  70 CALM      30.19F
LEONARDTOWN*   CLEAR     39  32  75 CALM      30.22F

$$

MDZ003>005-211000-
NORTH CENTRAL MARYLAND

CITY           SKY/WX    TMP DP  RH WIND       PRES   REMARKS
FREDERICK*     CLEAR     36  36 100 CALM      30.26S
HAGERSTOWN APT CLEAR     45  32  60 CALM      30.21S
WESTMINSTER*   CLEAR     37  34  87 N3        30.22S

$$

MDZ501>502-211000-
WESTERN MARYLAND

CITY           SKY/WX    TMP DP  RH WIND       PRES   REMARKS
OAKLAND*       CLEAR     41  27  56 SE9       30.15S
CUMBERLAND*    CLEAR     39  36  87 CALM      30.24S

$$

VAZ025>031-211000-
SHENANDOAH VALLEY

CITY           SKY/WX    TMP DP  RH WIND       PRES   REMARKS
WINCHESTER*    CLEAR     37  32  81 CALM      30.20F
STAUNTON*      CLEAR     34  31  89 CALM      30.22S

$$

WVZ021-048>050-054>055-211000-
EASTERN WEST VIRGINIA PANHANDLE

CITY           SKY/WX    TMP DP  RH WIND       PRES   REMARKS
MARTINSBURG    CLEAR     38  32  79 CALM      30.21F
PETERSBURG*    CLEAR     40  37  91 CALM      30.21S

$$

VAZ036>039-050-211000-
CENTRAL FOOTHILLS

CITY           SKY/WX    TMP DP  RH WIND       PRES   REMARKS
CHARLOTTESVILL CLEAR     39  32  76 CALM      30.21F
CULPEPER*      CLEAR     36  36 100 CALM      30.23F

$$

VAZ055>057-211000-
NORTH AND CENTRAL PIEDMONT

CITY           SKY/WX    TMP DP  RH WIND       PRES   REMARKS
FREDERICKSBRG* CLEAR     37  34  87 CALM      30.22S
STAFFORD*      CLEAR     32  32 100 CALM      30.26F

$$

NCZ024-NYZ072-PAZ021-071-VAZ022-071-211000-
OTHER REGIONAL OBSERVATIONS

CITY           SKY/WX    TMP DP  RH WIND       PRES   REMARKS
NEW YORK CITY  CLEAR     43  26  51 VRB3      30.25F
PHILADELPHIA   PTCLDY    40  25  55 NE6       30.25S
PITTSBURGH     PTCLDY    48  30  49 SE5       30.10F
ROANOKE        CLEAR     44  33  65 CALM      30.22F
RICHMOND       CLEAR     40  27  59 N8        30.19F
RALEIGH        CLEAR     43  32  65 VRB6      30.16S

$$

ANZ530>537-211000-
MARINE OBSERVATIONS

STATION/POSITION TIME  TEMP    WIND        PRES
                       AIR SEA DIR/SP/G
                 (UTC) (F)     (DEG/KT/KT) (MB)
THOMAS PT LIGHT  0900   45 54   50/  8/ 10 1023.8F
BALT KEY BRIDGE  0900   44      10/  8/  9 1023.6F
COVE POINT       0900   44      30/  8/ 10 1022.8F
LEWISETTA        0900   45 55   30/  6/ 10 1022.1F
SOLOMONS ISLAND  0900      53                N/A
PINEY POINT      0900           10/  5/  6   N/A

$$




USA.gov is the U.S. government's official web portal to all federal, state and local government web resources and services.